Regional Weather Roundup
Issued by NWS

Home | Current Version | Previous Version | Text Only | Print | Product List | Glossary On
Versions: 1 2 3 4 5 6 7 8 9 10 11 12 13 14 15 16 17 18 19 20 21 22 23 24 25 26 27 28 29 30 31 32 33 34 35 36 37 38 39 40 41 42 43 44 45 46 47 48 49 50
000
ASUS43 KLMK 011710
RWRKY
KENTUCKY REGIONAL WEATHER ROUNDUP
NATIONAL WEATHER SERVICE LOUISVILLE KY
100 PM EDT FRI AUG 01 2014

NOTE "FAIR" INDICATES FEW OR NO CLOUDS BELOW 12,000 FEET
WITH NO SIGNIFICANT WEATHER AND/OR OBSTRUCTIONS TO VISIBILITY.

KYZ001>023-026-027-061>063-070>075-011800-
WESTERN AND SOUTH CENTRAL KENTUCKY

CITY           SKY/WX    TMP DP  RH WIND       PRES   REMARKS
PADUCAH        PTSUNNY   86  65  49 VRB6      30.08S
HENDERSON      SUNNY     81  61  50 E7        30.08S
OWENSBORO      SUNNY     82  60  47 N5        30.10S
HOPKINSVILLE   MOSUNNY   85  55  36 E10       30.08F
BOWLING GREEN  SUNNY     86  55  34 NE10      30.09F
GLASGOW        SUNNY     83  55  38 NE5       30.10S
$$

KYZ024-025-028>034-038-045-046-053-011800-
NORTH CENTRAL KENTUCKY

CITY           SKY/WX    TMP DP  RH WIND       PRES   REMARKS
LOUISVILLE/SDF PTSUNNY   84  57  39 VRB6      30.09F
LOUISVILLE/LOU SUNNY     84  56  38 VRB6      30.10F
FORT KNOX      SUNNY     80  60  49 VRB1      30.10S
$$

KYZ035>037-039>044-047>052-055>060-089>105-011800-
NORTHEAST KENTUCKY

CITY           SKY/WX    TMP DP  RH WIND       PRES   REMARKS
LEXINGTON      CLOUDY    80  59  48 N3        30.12F
COVINGTON      PTSUNNY   82  57  42 N5        30.11F
FRANKFORT      MOSUNNY   81  57  43 CALM      30.10F
$$

KYZ054-064>069-076>088-106>120-011800-
SOUTHEAST KENTUCKY

CITY           SKY/WX    TMP DP  RH WIND       PRES   REMARKS
JACKSON        CLOUDY    79  63  57 CALM      30.13S
LONDON         SUNNY     80  62  54 VRB5      30.12F
SOMERSET       MOSUNNY   77  61  57 NE7       30.11F
MIDDLESBORO    CLOUDY    79  64  60 W3        30.12S
MONTICELLO     SUNNY     83  67  58 NE8       30.12F
$$



USA.gov is the U.S. government's official web portal to all federal, state and local government web resources and services.